クリステンセン彗星

164P/Christensen (2018)

English version
Home page
Updated on April 4, 2021

---------------------------------------------------------------------

・ プロフィール

・ 写真集

・ 軌道要素

Epoch 2018 June 11.0 TT = JDT 2458280.5                                         
T 2018 May 31.41745 TT                                  Rudenko                 
q   1.6852460            (2000.0)            P               Q                  
n   0.14067576     Peri.  325.93376     +0.56203918     -0.77836590             
a   3.6614789      Node    88.30463     +0.80746278     +0.44306969             
e   0.5397363      Incl.   16.25243     +0.17920890     +0.44478733             
P   7.01                                                                        
From 1358 observations 2004 Oct. 19-2019 June 5, mean residual 1".3.            
     Nongravitational parameters A1 = -0.15, A2 = +0.0105.                      

・ 光度変化

        m1 = 13.0 + 5 logΔ + 9.0 log r(t - 200)

---------------------------------------------------------------------

軌道要素はM.P.E.C. 2021-F20に掲載されたものです。
光度グラフはComet for Windowsで作成したものです。

---------------------------------------------------------------------

Copyright(C) Seiichi Yoshida (comet@aerith.net). All rights reserved.